GFSCGP_2pvu_pres_141.txt.gz
Presure
175 191 190 169 182 160 167 169 168 168 167 167 195 200 201 200 197 199 205 219 207 221 215 222 215 216 226 231 238 246 250 265 262 269 128 281 280 128 291 281 282 275 263 120
170 169 169 161 168 168 161 164 170 187 211 203 189 192 195 198 202 204 211 205 217 225 224 217 221 243 239 245 260 252 254 279 269 285 274 275 312 297 289 294 292 291 241 259
169 153 158 175 172 178 177 183 185 190 202 195 202 199 199 197 201 201 221 230 234 223 219 239 241 247 241 245 248 262 265 230 291 89 301 234 287 279 278 279 279 283 325 327
164 175 181 160 171 166 166 193 189 195 201 205 212 209 207 205 212 207 224 225 227 225 240 243 248 247 243 266 271 262 275 323 188 281 279 276 243 275 267 305 300 300 298 308
169 157 191 191 184 188 187 191 186 205 207 214 211 212 206 207 212 218 226 234 227 255 254 275 270 274 264 258 257 328 285 267 269 268 266 265 267 309 293 288 279 288 332 331
165 176 170 185 191 183 190 192 208 191 218 210 211 213 208 220 226 234 228 226 254 252 254 250 253 250 256 324 286 265 254 253 260 259 265 258 302 291 284 274 279 300 315 318
176 178 172 191 195 195 203 211 208 212 220 208 208 225 222 239 235 239 168 259 248 245 237 246 323 313 296 271 252 251 244 249 255 255 256 296 292 263 262 301 275 306 297 294
192 191 197 203 197 212 203 196 207 218 219 213 219 231 239 251 246 247 258 255 250 243 344 319 300 119 237 250 244 237 246 247 261 304 304 284 267 266 279 305 320 304 297 294
192 192 189 202 202 198 211 207 220 222 221 221 235 235 248 244 254 253 253 263 267 376 321 304 270 250 246 238 236 245 242 253 252 251 284 282 260 266 289 277 274 147 307 251
196 198 203 211 206 211 214 219 216 223 224 242 251 252 248 249 248 250 254 271 387 323 293 267 251 246 236 231 238 238 239 242 251 297 280 265 261 258 281 279 274 114 215 279
201 215 204 211 208 213 215 222 229 235 254 257 258 256 250 238 239 245 252 313 334 289 269 250 242 236 231 236 237 230 237 237 253 279 282 257 258 257 278 280 263 87 350 232
216 216 213 218 216 209 227 225 233 249 260 261 260 243 241 244 243 255 292 301 291 273 257 246 237 234 234 227 238 228 228 225 229 246 303 266 250 251 262 260 276 270 359 356
222 213 221 229 225 235 239 240 253 264 254 248 249 236 238 235 255 301 280 278 265 257 244 237 229 232 229 235 232 225 227 221 216 230 274 290 242 246 286 277 249 295 331 342
222 226 227 229 245 254 258 261 260 252 247 246 234 243 236 297 315 287 268 270 256 238 238 229 228 226 225 232 228 233 233 229 232 233 234 281 253 257 263 240 254 278 321 325
234 232 247 264 259 273 260 254 241 244 240 245 241 246 331 309 294 271 263 254 252 237 231 233 229 226 224 227 233 240 231 230 231 239 237 253 273 242 275 291 280 283 268 304
242 270 267 267 266 255 247 244 237 237 235 244 254 346 315 295 279 264 253 256 252 231 224 224 231 227 236 241 234 240 227 230 228 230 247 242 248 273 235 263 283 253 239 289
264 212 261 257 248 249 240 216 234 237 248 279 332 334 299 285 279 263 255 244 249 232 227 222 208 231 225 232 234 232 234 228 232 225 224 243 248 253 245 246 246 267 265 253
253 259 258 251 244 244 239 240 246 255 327 329 314 320 298 280 263 246 247 246 245 223 223 223 223 221 227 226 229 232 224 235 231 229 228 248 238 249 270 231 254 242 252 249
245 247 218 241 243 248 245 323 345 332 313 318 293 261 288 279 253 246 246 247 238 227 223 228 215 224 222 226 234 229 224 235 228 229 227 244 247 248 283 274 255 245 253 254
242 239 239 242 249 264 345 357 377 314 288 290 266 259 283 272 250 245 244 242 236 224 226 222 227 228 224 228 233 226 230 234 224 226 226 239 247 256 297 265 263 270 246 252
236 237 237 157 320 373 349 344 328 299 278 276 264 296 277 270 244 248 245 234 220 217 215 225 220 222 228 232 239 220 237 245 228 251 250 253 264 303 295 268 259 250 265 248
235 244 256 343 367 329 315 299 288 301 292 310 296 276 269 258 238 246 239 227 224 231 226 222 226 227 235 234 228 237 247 232 245 258 265 313 325 304 284 274 264 251 248 277
250 321 347 357 323 308 290 290 283 280 285 270 265 269 249 246 246 238 230 219 222 219 225 225 228 236 225 220 251 248 231 258 271 309 376 351 328 300 284 269 261 257 251 237
319 340 358 316 311 280 272 272 273 262 256 253 244 236 230 223 214 216 221 229 229 222 226 230 230 231 243 243 231 258 283 384 371 355 349 340 316 302 281 272 264 256 251 250
328 353 312 282 279 263 261 259 246 241 232 228 226 226 226 228 230 223 222 228 221 225 224 223 231 244 232 254 278 305 324 356 350 337 340 325 307 299 288 274 275 264 252 246
340 320 292 274 272 267 261 253 239 238 230 224 220 220 223 227 220 228 224 224 226 219 222 236 235 242 269 275 299 354 349 336 336 328 336 317 300 291 288 278 267 270 267 253

GFSCGP_2pvu_pres_144.txt.gz
Presure
181 169 179 177 179 173 169 170 167 162 169 173 165 172 176 179 188 186 208 206 209 210 217 216 214 214 223 219 234 237 236 241 245 247 253 263 259 261 279 277 271 255 291 293
179 176 178 182 182 187 181 176 160 171 158 166 173 165 162 165 193 195 213 204 218 219 218 220 220 218 229 232 239 235 236 266 274 275 275 280 273 271 282 259 334 331 316 277
183 177 171 177 188 161 171 165 165 176 174 157 160 175 189 191 196 209 206 225 220 213 215 217 230 240 240 238 223 261 260 262 258 267 269 263 295 332 307 215 286 285 287 153
163 188 177 182 177 178 181 174 158 170 170 166 171 172 196 197 213 208 206 221 223 215 219 234 240 250 242 249 263 256 256 255 258 266 348 304 277 274 274 275 277 277 277 278
196 187 179 161 160 167 159 181 170 173 175 191 196 201 193 213 202 215 212 223 225 222 228 235 255 251 260 255 260 263 250 261 327 282 268 266 151 271 267 270 278 268 272 301
170 186 170 189 201 196 184 166 176 186 181 199 203 199 207 199 207 208 222 219 222 223 245 260 260 260 253 259 265 279 324 282 267 257 260 257 264 262 267 236 268 290 287 282
195 199 193 199 195 177 167 180 190 198 193 199 200 202 207 210 127 218 223 225 126 256 260 259 251 255 251 300 328 313 266 255 251 250 252 257 260 257 298 291 281 279 278 282
197 184 205 194 190 186 198 195 193 199 201 199 205 211 212 217 218 220 223 237 242 260 260 253 244 248 345 322 281 263 248 251 241 246 251 253 258 296 292 277 267 269 285 293
196 199 188 189 189 193 199 203 202 196 210 214 221 218 216 219 220 244 255 267 269 261 252 249 244 364 316 276 262 248 240 240 240 240 242 242 263 294 279 280 273 267 289 282
195 196 206 198 191 201 208 209 210 215 226 228 229 220 230 233 248 267 276 266 254 244 245 247 357 309 274 259 246 239 236 237 239 239 239 229 241 278 272 275 265 280 277 269
207 201 198 197 204 211 213 215 227 229 226 219 227 225 222 266 271 269 258 247 245 242 242 287 308 275 263 247 240 237 230 239 236 162 228 228 231 239 275 265 259 283 271 260
198 205 214 213 210 213 216 223 223 220 213 228 229 126 263 263 269 263 256 235 238 246 295 310 268 263 251 243 237 234 237 237 226 237 216 218 228 241 251 253 281 255 254 266
215 218 216 213 207 221 217 211 215 223 234 253 250 257 263 264 258 245 244 248 245 311 290 279 261 258 238 236 236 229 231 241 225 238 233 228 218 231 232 277 253 271 262 282
225 226 226 223 220 227 225 231 230 240 252 258 260 266 250 248 251 243 253 247 323 297 273 261 252 250 241 236 227 226 229 217 226 241 231 231 234 229 229 270 273 264 259 250
232 233 233 229 230 230 236 252 257 258 255 257 256 258 249 243 239 251 250 337 292 274 268 257 245 240 227 227 236 235 228 235 232 235 236 230 237 230 234 254 274 245 266 256
243 245 253 245 249 258 275 263 257 253 256 262 255 243 241 237 239 256 354 312 275 266 266 254 248 233 233 224 233 222 223 225 233 231 238 231 240 232 237 230 247 278 257 277
252 267 257 269 277 275 260 251 250 260 257 254 247 246 249 260 350 319 319 297 271 268 259 258 242 237 228 223 215 223 218 229 225 231 231 228 234 239 234 245 256 248 274 267
257 270 274 271 268 259 255 252 254 243 241 245 249 258 321 339 323 316 300 272 270 256 253 253 249 227 229 224 216 221 224 219 225 235 233 227 228 235 232 231 238 262 276 243
272 273 272 263 247 259 246 250 242 247 245 262 372 373 331 321 303 316 278 281 263 247 248 240 246 239 226 217 227 216 225 230 229 235 239 229 230 237 230 236 231 236 258 278
246 247 240 243 250 253 234 244 238 252 361 375 360 320 302 289 267 253 279 270 256 249 240 244 243 237 229 220 226 224 225 227 236 241 240 229 232 240 233 227 253 243 279 273
235 243 237 181 241 241 248 242 153 372 331 319 307 284 279 270 257 273 273 263 250 245 241 241 239 232 224 218 227 223 221 235 238 238 231 235 249 249 238 221 278 298 293 285
241 238 236 237 238 239 243 253 354 316 293 286 284 278 268 283 289 260 261 259 238 245 245 237 227 227 229 226 224 231 232 238 233 236 244 245 239 298 332 363 341 313 294 279
235 236 237 248 254 264 266 360 308 290 281 288 286 287 290 275 260 267 258 242 241 247 237 225 219 215 231 230 230 232 230 232 239 252 232 292 379 368 369 352 331 313 284 278
250 254 258 265 279 334 360 306 283 282 281 278 274 269 266 266 252 246 237 229 224 224 213 229 231 227 222 228 229 223 238 245 256 280 344 362 294 350 344 339 320 308 286 271
263 269 288 292 312 370 308 279 272 272 262 260 252 248 237 236 229 223 225 227 230 223 225 232 225 230 227 226 236 244 250 261 289 361 356 344 349 334 339 329 314 301 289 272
271 281 289 321 347 318 274 267 267 256 249 239 223 235 212 226 223 227 231 234 234 229 223 224 224 226 235 238 246 257 279 331 355 341 346 331 323 323 321 329 309 294 289 278

GFSCGP_2pvu_pres_147.txt.gz
Presure
175 159 163 155 181 174 180 191 185 181 171 173 182 174 183 184 171 172 171 177 174 175 171 180 205 215 220 215 225 226 227 219 238 241 254 257 248 237 264 268 273 280 293 292
167 175 182 152 199 192 158 174 181 179 183 173 179 182 179 179 161 180 174 176 175 178 190 203 213 216 219 227 230 231 235 237 249 263 262 260 265 269 270 265 260 267 267 275
149 184 160 161 169 199 177 178 169 188 174 162 179 178 176 181 178 184 180 178 179 180 206 209 216 216 222 226 226 229 239 265 265 261 266 270 269 275 274 263 300 332 319 310
168 150 199 192 174 174 165 192 189 176 184 184 171 168 168 181 180 174 177 186 200 206 205 210 215 221 231 222 229 241 266 264 267 265 270 272 352 313 287 277 276 280 282 282
150 176 160 169 185 186 171 172 170 191 202 197 188 187 198 168 170 196 204 198 206 205 210 222 225 228 228 235 253 265 264 266 261 256 300 301 279 264 267 267 267 271 209 278
184 166 174 156 188 179 204 189 160 182 194 186 182 174 176 195 193 198 198 210 209 210 225 235 231 236 246 265 266 263 259 260 251 349 285 265 253 256 253 264 264 288 263 287
189 172 156 178 187 185 166 197 202 196 190 191 205 189 183 193 196 210 153 176 219 238 130 227 232 253 275 271 259 252 248 257 339 279 260 251 249 251 252 252 256 304 300 292
203 193 209 158 183 197 171 191 211 203 196 194 201 208 207 198 212 215 218 220 238 228 221 226 274 275 269 253 246 244 251 325 271 257 249 243 243 243 248 266 242 298 284 274
174 205 166 199 168 196 171 198 191 194 200 205 207 197 200 206 215 225 226 227 227 216 262 274 271 260 252 249 250 246 311 272 252 250 240 239 242 241 245 245 253 236 277 281
190 204 204 195 197 207 202 206 199 205 205 203 194 205 219 221 226 227 227 220 235 259 269 272 260 248 245 243 247 300 273 254 245 236 234 238 238 240 241 235 234 250 272 287
198 203 204 205 199 197 204 201 210 208 209 209 217 214 216 227 224 232 233 250 266 270 269 259 248 240 258 242 311 272 262 245 240 238 235 242 229 234 237 232 230 238 242 273
203 205 196 205 211 206 199 208 219 214 212 229 231 224 223 236 239 239 270 269 268 261 249 246 251 244 240 301 275 252 251 237 236 228 239 243 227 229 238 236 244 231 231 272
207 191 196 201 220 217 215 217 220 224 221 231 235 242 242 248 251 270 268 256 255 253 250 256 234 258 312 287 262 254 240 235 230 235 239 231 218 237 235 227 230 234 237 238
223 216 212 217 225 226 224 225 222 228 235 237 244 247 241 264 273 268 264 263 254 258 245 237 242 324 283 266 254 254 235 237 228 226 237 228 232 220 239 234 227 230 229 248
221 225 228 227 227 231 232 232 232 237 255 273 261 264 269 266 263 260 262 258 247 248 245 243 317 294 272 257 251 242 230 229 231 232 228 227 234 229 232 245 237 235 230 243
235 238 238 234 239 251 248 249 279 273 255 261 274 270 264 261 258 258 251 249 246 247 279 317 293 277 269 253 249 239 238 229 228 240 226 224 231 229 233 236 236 235 233 231
251 252 251 264 285 275 277 260 254 258 267 264 266 263 264 257 250 245 247 262 334 343 327 292 273 265 269 254 247 240 238 229 217 218 227 224 225 229 236 235 242 229 238 232
247 260 255 240 273 264 270 262 262 263 260 261 268 255 257 248 251 334 363 341 328 311 294 281 268 259 263 257 249 233 242 230 229 215 218 228 233 233 236 242 248 236 236 241
244 238 262 269 281 263 242 246 257 262 237 252 258 242 246 259 374 343 325 323 303 311 277 276 252 256 241 248 253 248 242 232 234 214 227 227 227 234 235 248 247 242 229 241
254 253 251 232 245 230 238 243 238 234 233 239 241 247 271 340 320 309 303 288 320 278 259 268 264 249 243 250 241 246 243 240 221 225 228 237 230 233 242 248 238 237 254 246
253 239 232 235 237 240 235 239 235 239 241 245 250 324 318 306 289 286 279 264 267 267 274 258 245 242 249 240 240 239 240 233 227 230 234 231 232 239 243 243 248 257 264 239
240 247 236 239 240 234 229 238 240 241 245 267 325 317 301 300 280 274 268 258 275 264 261 255 246 240 244 244 240 235 228 227 227 228 231 234 241 240 247 245 265 356 388 363
251 243 241 241 237 232 248 248 247 262 269 351 304 290 286 287 298 296 294 280 263 258 267 251 244 243 240 232 225 226 224 228 230 228 239 237 242 250 262 368 373 364 359 358
266 264 256 243 243 260 260 259 270 274 374 300 280 285 276 271 273 274 262 267 261 245 240 238 227 220 225 227 224 228 232 236 231 237 245 247 260 321 357 355 355 342 336 345
266 265 264 266 267 269 266 271 282 350 305 275 277 268 264 263 259 250 247 240 236 230 225 226 228 228 225 230 234 221 226 237 240 249 263 292 318 307 346 337 336 329 327 322
261 264 264 262 265 267 274 277 308 343 273 277 260 256 252 242 242 235 234 222 228 223 230 234 232 229 226 221 227 234 232 247 259 282 292 338 348 338 320 332 321 324 312 320

GFSCGP_2pvu_pres_150.txt.gz
Presure
174 175 162 141 168 197 150 155 177 149 175 173 166 185 168 157 186 183 171 183 169 183 167 178 181 188 191 181 183 191 214 182 220 227 232 231 240 230 249 258 277 278 277 279
166 178 170 153 160 147 162 171 162 142 160 165 163 189 176 165 151 178 186 186 183 189 172 180 186 181 182 186 211 204 217 218 237 239 240 242 247 263 268 269 271 275 279 288
170 177 190 169 174 173 154 146 183 188 201 177 171 196 193 185 168 189 177 192 192 189 192 191 190 206 187 182 209 220 219 237 239 233 239 264 270 273 271 273 273 286 329 306
179 172 151 166 165 167 175 167 187 157 155 179 177 174 164 170 180 165 168 170 178 179 212 205 184 201 188 209 220 231 236 248 232 239 278 280 276 270 265 265 309 286 277 276
166 157 182 185 189 184 169 197 190 200 171 188 181 196 176 179 196 188 188 183 184 175 201 201 206 207 205 218 235 233 236 226 276 291 279 264 260 265 258 286 272 267 268 266
181 160 181 180 190 193 187 177 170 187 188 193 162 195 184 191 182 206 195 200 199 191 203 209 203 208 228 235 232 240 257 273 288 262 256 257 261 311 276 261 259 254 261 263
166 188 193 160 192 198 162 198 199 194 165 194 171 183 197 183 189 195 219 191 194 202 202 202 119 221 227 243 236 250 276 279 263 262 262 248 308 271 255 248 247 247 268 256
170 162 171 192 180 201 209 197 182 156 196 199 196 168 204 200 200 216 207 203 211 211 211 213 230 235 239 239 250 276 273 263 255 248 254 299 266 253 241 242 248 248 257 239
161 196 200 179 141 198 150 192 204 208 200 208 193 204 197 207 196 202 207 207 210 218 217 222 241 246 248 255 276 273 261 251 249 261 298 265 253 241 247 241 242 229 235 253
175 176 196 190 203 204 203 194 195 202 202 202 199 200 207 206 205 212 215 219 220 222 229 235 243 261 271 272 268 252 249 253 249 270 278 255 240 240 238 239 234 228 228 246
202 189 210 206 206 205 206 203 198 200 201 205 205 200 192 214 209 224 228 229 222 228 246 254 264 271 268 260 258 257 251 245 239 283 266 249 237 236 238 240 228 229 241 236
192 202 216 213 210 203 207 203 204 203 203 210 213 210 192 186 106 106 240 234 236 278 267 270 272 265 261 262 257 260 244 237 293 267 259 242 240 232 234 238 228 230 237 237
218 217 221 209 209 210 209 204 204 207 212 213 217 223 226 234 238 245 265 289 265 266 269 270 263 260 260 259 249 245 244 305 279 255 251 235 226 230 238 238 240 222 222 223
224 226 232 223 222 228 222 220 224 228 223 230 233 235 230 247 255 281 273 269 272 275 262 261 259 263 262 258 252 253 293 289 268 247 247 234 225 225 229 220 229 233 229 231
246 240 242 230 229 238 227 230 238 223 239 252 253 258 267 279 276 265 269 272 267 268 264 263 262 253 248 248 247 301 291 271 259 237 247 232 231 232 234 225 229 231 231 232
243 243 242 234 241 241 233 232 235 243 259 268 289 275 256 267 266 275 268 268 276 262 256 257 260 263 343 329 301 293 272 263 247 247 228 241 230 226 242 219 229 228 227 229
251 244 242 245 248 243 237 237 247 252 235 230 268 271 273 267 267 272 246 260 253 247 286 360 342 327 315 289 283 270 264 259 251 241 244 240 237 229 217 227 229 220 236 237
254 257 261 255 247 250 247 254 247 244 240 261 276 264 242 259 246 241 240 244 243 355 332 327 315 314 286 279 269 264 253 265 243 248 242 242 239 236 230 226 218 234 232 243
263 260 258 256 255 255 255 251 248 247 256 263 234 243 251 243 242 247 240 268 322 313 314 307 313 285 272 269 255 253 255 251 251 254 250 251 240 248 243 229 229 235 245 240
262 257 253 248 261 260 255 243 258 242 246 239 239 242 241 244 238 239 339 313 300 294 284 296 300 271 257 263 254 245 248 239 247 242 240 242 245 248 249 246 228 244 240 242
257 257 259 258 260 253 242 251 248 234 234 241 240 240 236 241 248 343 323 294 290 282 270 263 279 247 260 255 260 249 240 245 241 240 240 240 240 237 233 233 236 239 238 246
268 262 256 257 254 254 252 251 239 237 246 242 244 238 243 253 309 310 289 300 277 268 260 265 260 262 258 252 249 246 243 240 239 239 235 232 230 231 239 239 240 243 254 268
256 253 261 261 254 251 246 251 253 248 242 242 246 247 260 293 316 292 279 283 294 290 281 269 262 259 261 246 238 238 234 231 228 229 229 230 236 238 238 247 256 266 317 325
262 262 262 261 254 254 257 262 263 260 258 256 262 271 287 315 294 273 265 276 273 273 267 255 243 239 237 235 228 227 229 229 228 231 230 229 237 248 254 294 332 365 350 341
260 257 260 263 263 267 265 265 262 264 269 272 275 283 344 293 268 266 266 261 249 247 247 237 236 232 225 228 229 232 231 228 221 229 236 243 258 289 287 292 353 352 338 332
262 262 261 263 266 270 267 265 263 267 270 276 291 380 292 266 256 254 239 244 230 233 226 220 227 233 235 230 225 222 227 231 232 238 254 280 287 273 272 348 350 341 326 314

GFSCGP_2pvu_pres_156.txt.gz
Presure
180 131 175 184 185 175 170 185 155 185 169 175 155 174 165 193 184 175 168 182 148 155 161 199 194 187 203 206 184 180 187 198 185 186 179 189 194 187 195 201 223 224 221 227
185 176 180 181 183 184 172 156 183 178 166 175 177 165 180 177 177 183 191 178 199 201 185 198 207 179 195 200 202 176 199 200 203 205 210 211 197 204 218 208 223 227 251 258
181 180 160 178 188 174 167 162 167 167 161 189 175 167 179 175 180 185 179 173 185 204 203 181 202 197 202 199 202 203 179 205 203 215 199 216 213 213 219 226 237 243 272 284
179 161 171 179 171 180 174 169 178 185 171 170 177 183 165 184 184 185 199 161 193 193 203 205 202 217 222 226 212 208 214 214 210 215 212 221 224 220 228 242 269 277 283 293
172 172 159 177 170 178 182 166 173 172 173 174 163 176 175 169 191 197 201 196 201 214 210 208 217 200 220 215 218 216 212 210 215 215 220 212 221 227 252 266 281 274 285 274
177 166 177 183 178 166 181 165 167 175 175 168 178 167 101 161 165 169 173 139 198 198 209 210 214 194 207 222 224 221 219 227 225 225 222 229 252 254 287 278 269 276 269 268
175 181 177 182 180 181 177 187 181 176 185 180 172 165 177 167 180 178 188 194 201 211 206 213 215 203 235 228 227 226 232 226 223 230 254 260 287 282 272 274 267 262 265 257
199 177 182 184 171 170 161 186 170 165 166 174 175 168 167 179 185 194 207 194 222 206 217 223 215 224 228 232 235 222 224 233 252 256 292 289 280 277 276 267 266 268 264 246
176 194 179 176 189 178 174 189 189 191 177 173 170 181 175 174 178 182 204 215 233 220 224 232 223 234 231 220 227 228 235 279 290 286 267 277 281 274 266 265 263 253 242 278
190 179 182 193 164 172 169 168 168 188 177 191 187 176 165 174 200 204 222 230 234 233 234 226 221 224 227 239 245 255 282 252 267 276 283 273 271 269 263 265 263 255 244 287
184 165 179 168 190 180 163 164 175 182 175 171 175 202 203 225 204 236 246 236 239 175 223 225 240 245 249 248 250 265 259 291 280 282 280 280 274 271 267 261 251 240 292 271
205 192 184 169 180 198 170 176 174 177 212 215 218 224 243 235 242 129 232 249 247 236 243 247 248 250 255 258 259 288 283 282 252 251 252 247 249 252 242 241 252 246 286 266
194 196 199 196 198 207 206 219 229 218 215 214 240 241 251 244 248 245 241 245 252 250 252 249 259 253 261 261 289 261 255 251 252 257 291 302 279 269 251 247 244 287 268 255
204 205 211 205 209 214 232 236 241 246 247 256 259 139 242 247 262 262 255 254 255 255 261 258 265 252 273 257 260 252 252 258 371 364 357 350 337 322 323 292 284 274 257 247
211 214 210 242 250 254 249 247 257 261 259 228 138 267 263 262 268 261 253 252 256 256 255 262 257 261 246 252 248 255 278 356 353 336 321 317 308 293 277 274 273 257 256 247
249 253 253 263 247 255 262 271 264 267 261 276 272 273 267 262 253 250 249 255 251 254 256 252 256 247 238 243 249 274 326 332 313 299 294 288 274 266 262 259 261 261 251 242
255 266 256 268 275 268 274 295 284 274 275 269 268 266 264 253 250 259 256 254 253 262 250 255 251 244 250 248 277 308 294 304 292 288 285 275 265 262 263 255 251 248 249 248
271 267 260 267 286 299 293 280 268 270 267 271 266 257 252 252 257 255 255 252 250 257 253 249 239 248 250 263 305 288 300 294 281 270 270 264 251 244 251 252 253 253 252 251
277 284 302 292 287 294 292 275 267 278 273 264 254 254 254 254 254 255 252 249 258 249 252 249 245 251 261 317 286 277 293 271 261 275 269 262 252 249 248 244 244 246 246 242
308 309 307 293 293 296 276 268 274 271 267 255 256 257 250 250 256 252 249 255 245 253 252 248 257 275 300 299 276 309 263 270 249 261 255 253 248 250 250 244 243 242 241 240
300 300 290 288 292 283 270 265 265 271 262 260 259 251 256 255 255 257 261 250 255 253 253 260 272 279 297 285 264 251 267 259 264 254 249 245 241 240 238 233 233 231 231 233
306 289 282 280 287 272 265 268 266 264 262 261 255 254 253 259 254 256 258 252 253 260 276 266 278 283 293 281 272 265 260 256 254 247 240 235 231 230 233 229 227 231 236 239
289 288 279 281 284 278 269 269 257 260 262 259 256 253 257 251 254 253 256 258 266 264 274 298 285 273 284 279 266 257 248 230 232 230 230 232 235 224 223 228 235 237 244 250
285 287 283 279 266 269 273 264 260 264 260 252 255 245 252 254 256 259 265 263 269 271 276 288 271 265 269 262 243 241 229 223 231 234 236 223 222 227 229 234 241 239 250 260
278 279 279 275 267 266 258 268 270 256 260 253 251 257 259 259 261 264 271 272 283 313 336 272 265 251 246 231 235 234 233 235 236 233 224 223 227 229 239 239 244 253 261 271
279 276 273 273 271 271 272 266 261 256 252 249 258 258 260 259 263 268 272 294 320 368 275 261 249 242 227 230 232 234 231 234 229 224 222 227 233 239 240 247 255 257 267 280